Regional Weather Roundup
Issued by NWS

Home | Current Version | Previous Version | Graphics & Text | Print | Product List | Glossary On
Versions: 1 2 3 4 5 6 7 8 9 10 11 12 13 14 15 16 17 18 19 20 21 22 23 24 25 26 27 28 29 30 31 32 33 34 35 36 37 38 39 40 41 42 43 44 45 46 47 48 49 50
000
ASUS43 KOAX 051410
RWRNE

WEATHER ROUNDUP FOR NEBRASKA
NATIONAL WEATHER SERVICE OMAHA NE
800 AM CST THU MAR 05 2015

NOTES: SATELLITE DATA IS BEING USED TO AUGMENT CLOUD COVER ABOVE
       12000 FEET.
       "FAIR" INDICATES FEW OR NO CLOUDS BELOW 12,000 FEET WITH NO
       SIGNIFICANT WEATHER AND/OR OBSTRUCTIONS TO VISIBILITY.

  * THESE STATIONS DO NOT REPORT WEATHER SUCH AS RAIN...SNOW OR FOG.

NEZ001>004-019>022-054>056-051500-
NEBRASKA PANHANDLE

CITY           SKY/WX    TMP DP  RH WIND       PRES   REMARKS
SCOTTSBLUFF    PTCLDY     8   3  80 NW6       30.19S WCI  -2
ALLIANCE       CLEAR      4  -1  80 W7        30.16S WCI  -8
CHADRON        PTCLDY    -1  -7  75 SW7       30.19S WCI -14
KIMBALL        CLEAR     13   6  74 SW8       30.16R WCI   1
SIDNEY         CLEAR     13   5  70 W9        30.19S WCI   1
$$

NEZ057>060-069>072-079>082-051500-
SOUTHWEST NEBRASKA

CITY           SKY/WX    TMP DP  RH WIND       PRES   REMARKS
NORTH PLATTE   PTCLDY     5  -1  76 E3        30.32S
IMPERIAL         N/A      7   2  80 S5        30.28S WCI  -2
LEXINGTON      PTCLDY     8   2  78 S3        30.39R
MCCOOK         CLEAR     10   2  69 E3        30.35S
OGALLALA       PTCLDY     4   1  88 CALM      30.26S
$$

NEZ005>010-023>029-035>040-094-051500-
NORTH CENTRAL NEBRASKA

CITY           SKY/WX    TMP DP  RH WIND       PRES   REMARKS
VALENTINE      PTCLDY     2  -5  72 CALM      30.26F
AINSWORTH      PTCLDY     8   1  75 S13       30.28F WCI  -8
BROKEN BOW     PTCLDY     5  -2  72 S5        30.35R WCI  -4
O`NEILL        PTCLDY     4  -1  81 S6        30.36S WCI  -7
ORD            PTCLDY     3  -2  79 CALM      30.39R
THEDFORD       PTCLDY     9   2  73 S9        30.28S WCI  -4
$$

NEZ041-046>049-061>064-073>077-083>087-051500-
SOUTH CENTRAL NEBRASKA

CITY           SKY/WX    TMP DP  RH WIND       PRES   REMARKS
GRAND ISLAND   PTCLDY     9   1  70 S9        30.45R WCI  -4
AURORA         SUNNY      9  -1  62 S6        30.45R WCI  -1
HASTINGS       PTCLDY     8  -2  63 S8        30.43R WCI  -4
HEBRON         SUNNY      7   1  75 CALM      30.51R
HOLDREGE       MOCLDY     6  -1  71 S6        30.39S WCI  -4
KEARNEY *      PTCLDY     7   0  72 S6        30.41R WCI  -3
YORK           SUNNY      7   0  72 S5        30.47R WCI  -2
$$

NEZ011>018-030>034-042>045-051500-
NORTHEAST NEBRASKA

CITY           SKY/WX    TMP DP  RH WIND       PRES   REMARKS
NORFOLK        PTSUNNY    3  -3  76 CALM      30.45R
ALBION         MOCLDY     1  -5  76 CALM      30.44R
BLAIR          SUNNY      6  -3  69 CALM      30.51R
COLUMBUS *     MOSUNNY    3  -6  66 CALM      30.49R
FREMONT        MOSUNNY    5  -2  72 CALM      30.52R
TEKAMAH        SUNNY      3  -4  72 CALM      30.55R
WAYNE          PTSUNNY   -4 -10  77 CALM      30.48S
$$

NEZ050>053-065>068-078-088>093-051500-
SOUTHEAST NEBRASKA

CITY           SKY/WX    TMP DP  RH WIND       PRES   REMARKS
LINCOLN        SUNNY      5  -1  76 CALM      30.54R
OMAHA EPPLEY   SUNNY      8   1  73 CALM      30.56R
BEATRICE       SUNNY      8   2  76 CALM      30.53R
FALLS CITY     SUNNY      8   1  73 CALM      30.57R
NEBRASKA CITY  SUNNY      7  -3  63 S3        30.55R
PLATTSMOUTH    SUNNY      6  -2  67 SE3       30.53S
$$

NEZ044-045-051>053-067-051500-
OMAHA AREA

CITY           SKY/WX    TMP DP  RH WIND       PRES   REMARKS
OMAHA EPPLEY   SUNNY      8   1  73 CALM      30.56R
BLAIR          SUNNY      6  -3  69 CALM      30.51R
FREMONT        MOSUNNY    5  -2  72 CALM      30.52R
MILLARD        SUNNY      9   0  68 CALM      30.55R
OFFUTT AFB     SUNNY      6   0  76 S2        30.55R
PLATTSMOUTH    SUNNY      6  -2  67 SE3       30.53S
WAHOO          FAIR       3  -3  73 CALM      30.52R
$$



USA.gov is the U.S. government's official web portal to all federal, state and local government web resources and services.